This is the latest recevied weather packets stored in our database for station/object 9M2SPN-3. If no packets are shown the sender has not sent any weather packets the latest 10 day(s).
| Time | Temp. | Humidity | Pressure | Rain* | Wind** | Luminosity | Snow |
|---|---|---|---|---|---|---|---|
| 1788136025 | 94° F | 57% | 756.7 mmHg | - | - | - | - |
| 1788134225 | 93° F | 59% | 756.5 mmHg | - | - | - | - |
| 1788132424 | 92° F | 60% | 756.4 mmHg | - | - | - | - |
| 1788130623 | 91° F | 60% | 756.4 mmHg | - | - | - | - |
| 1788128822 | 92° F | 59% | 756.1 mmHg | - | - | - | - |
| 1788127021 | 92° F | 60% | 756.3 mmHg | - | - | - | - |
| 1788125221 | 92° F | 59% | 756.4 mmHg | - | - | - | - |
| 1788123420 | 92° F | 59% | 756.4 mmHg | - | - | - | - |
| 1788121619 | 91° F | 60% | 756.5 mmHg | - | - | - | - |
| 1788119818 | 91° F | 59% | 756.8 mmHg | - | - | - | - |
| 1788118017 | 91° F | 58% | 756.7 mmHg | - | - | - | - |
| 1788116216 | 93° F | 55% | 757 mmHg | - | - | - | - |
| 1788114416 | 95° F | 59% | 756.4 mmHg | - | - | - | - |
| 1788112615 | 95° F | 59% | 756.4 mmHg | - | - | - | - |
| 1788110814 | 94° F | 59% | 756.7 mmHg | - | - | - | - |
| 1788109013 | 96° F | 57% | 756.9 mmHg | - | - | - | - |
| 1788107212 | 96° F | 57% | 756.9 mmHg | - | - | - | - |
| 1788105411 | 97° F | 57% | 756.6 mmHg | - | - | - | - |
| 1788103610 | 97° F | 58% | 756.4 mmHg | - | - | - | - |
| 1788101810 | 96° F | 58% | 756.1 mmHg | - | - | - | - |
| 1788100009 | 98° F | 57% | 756.1 mmHg | - | - | - | - |
| 1788098208 | 98° F | 56% | 755.8 mmHg | - | - | - | - |
| 1788096407 | 99° F | 55% | 755.9 mmHg | - | - | - | - |
| 1788094606 | 99° F | 54% | 755.5 mmHg | - | - | - | - |
| 1788092806 | 99° F | 54% | 755.1 mmHg | - | - | - | - |
* Rain since midnight (hover to see other rain measurements)
** Current wind speed in m/s (hover to see current wind gust speed)